Location: Maiden
(35.5760°N, 81.2120°W)
Time: 19:01:29
(UTC-04:00)

SL-08 RB Rocket - Pass Details

Date: 14 June 2018
Orbit: 648 x 684 km, 97.9° (Epoch: 20 June)

Event Time Altitude Azimuth Distance (km) Brightness Sun altitude
Exits shadow 22:08:52 24° 144° (SE) 1,387 4.7 -15.0°
Maximum altitude 22:11:29 57° 75° (ENE) 799 3.9 -15.4°
Drops below altitude 10° 22:16:03 10° 357° (N) 2,130 7.0 -16.0°
Sets 22:18:20 0° 353° (N) 3,051 8.0 -16.4°
